Regional Weather Roundup
Issued by NWS San Angelo, TX

Home | Current Version | Previous Version | Text Only | Print | Product List | Glossary On
Versions: 1 2 3 4 5 6 7 8 9 10 11 12 13 14 15 16 17 18 19 20 21 22 23 24 25 26 27 28 29 30 31 32 33 34 35 36 37 38 39 40 41 42 43 44 45 46 47 48 49 50
000
ASUS44 KSJT 161010
RWRSJT
WEST CENTRAL TEXAS REGIONAL WEATHER ROUNDUP
NATIONAL WEATHER SERVICE SAN ANGELO TX
500 AM CDT WED APR 16 2014

NOTE: "FAIR" INDICATES FEW OR NO CLOUDS BELOW 12,000 FEET WITH NO
SIGNIFICANT WEATHER AND/OR OBSTRUCTIONS TO VISIBILITY.

TXZ049-054-064>066-071>073-076>078-098-099-113-114-127-128-139-140-
154-155-168>170-161100
...LOCATIONS ACROSS WEST CENTRAL TEXAS...

CITY           SKY/WX    TMP DP  RH WIND       PRES   REMARKS
SAN ANGELO     CLEAR     49  19  30 S13       29.99S
ABILENE        MOCLDY    50  20  30 S16       29.95F
DYESS AFB      MOCLDY    50  20  30 S18G26    29.94S
JUNCTION       PTCLDY    45  21  38 S6        30.03F
SWEETWATER     PTCLDY    50  16  25 S15G23    29.96R
BROWNWOOD      CLEAR     41  27  56 SE7       30.04R WCI  36
COLEMAN        MOSUNNY   40  26  57 S7        30.01S WCI  36
SONORA         MOCLDY    48  19  32 S10       30.03R
OZONA          FAIR      46  18  31 S9        30.02F
BRADY            N/A     43  21  42 SE8       30.01F WCI  38
$$

TEXAS PANHANDLE/OKLAHOMA PANHANDLE

CITY           SKY/WX    TMP DP  RH WIND       PRES   REMARKS
AMARILLO       PTCLDY    46   9  22 S14       29.81F WCI  40
BORGER         PTCLDY    51   9  18 S13G22    29.78F
CANADIAN       PTCLDY    50  11  21 S21G26    29.78F
DALHART        CLEAR     45  11  25 S12       29.76R WCI  39
DUMAS          MOSUNNY   48   8  19 SW20      29.73F
GUYMON         NOT AVBL
HEREFORD       MOSUNNY   46   8  20 SW14      29.82F
PAMPA          MOSUNNY   45  10  24 S22G29    29.79F WCI  36
PERRYTON       PTCLDY    48  13  24 S20       29.73F
$$

SOUTHERN PANHANDLE/SOUTH PLAINS/ROLLING PLAINS

CITY           SKY/WX    TMP DP  RH WIND       PRES   REMARKS
LUBBOCK        PTCLDY    47  11  23 S16       29.87F
SNYDER         PTCLDY    43  13  30 S9        29.94F WCI  37
CHILDRESS      CLOUDY    49  13  23 S15       29.88F
SEMINOLE       PTSUNNY   47  13  25 S12G17    29.90S
$$

PERMIAN BASIN

CITY           SKY/WX    TMP DP  RH WIND       PRES   REMARKS
MIDLAND        CLOUDY    51  17  26 S16       29.90F
ODESSA         CLOUDY    51  15  23 S18       29.90F
WINK           MOCLDY    50  14  23 SE13      29.88S
$$

FAR WEST/SOUTHWEST MOUNTAINS/TRANS PECOS

CITY           SKY/WX    TMP DP  RH WIND       PRES   REMARKS
ALPINE         SUNNY     53  12  19 SW10      30.00F
DRYDEN           N/A     45  15  30 NE7       29.96F
EL PASO        FAIR      54   5  14 CALM      29.88F
FORT STOCKTON  CLEAR     49  15  25 SE18      29.89F
GUADALUPE PASS CLEAR     54  11  18 SW7       29.96F
MARFA          CLEAR     34   7  32 NE7       30.00F WCI  28
PECOS          SUNNY     43  13  30 NE8       29.86F WCI  38
$$

DALLAS/FORT WORTH METROPLEX

CITY           SKY/WX    TMP DP  RH WIND       PRES   REMARKS
DFW AIRPORT    MOCLDY    47  30  51 S9        30.08R
FTW MEACHAM    PTCLDY    45  31  58 S9        30.07R
DAL-EXECUTIVE  CLEAR     46  29  51 S8G16     30.08S
GRAND PRAIRIE  CLEAR     48  30  49 S7        30.11R
ADDISON        PTCLDY    48  31  53 S9        30.10R
MESQUITE       SUNNY     37  33  86 S5        30.09F WCI  33
LANCASTER      SUNNY     39  33  78 CALM      30.10S
$$

NORTH CENTRAL TEXAS

CITY           SKY/WX    TMP DP  RH WIND       PRES   REMARKS
SHRMAN/DENISON MOSUNNY   46  29  53 SE13      30.08S WCI  40
GAINESVILLE    MOCLDY    40  32  71 S3        30.08F
BRIDGEPORT     MOSUNNY   44  28  51 SE7       30.06F
DENTON         PTCLDY    44  31  60 SE5       30.07S
WAXAHACHIE     SUNNY     39  31  72 S5        30.11R WCI  36
GRANBURY       SUNNY     47  31  52 SE8       30.07F
$$

WESTERN NORTH TEXAS

CITY           SKY/WX    TMP DP  RH WIND       PRES   REMARKS
WICHITA FALLS  MOCLDY    47  26  44 S14       29.99S
VERNON         MOSUNNY   49  22  35 SE13      29.94F
BRECKENRIDGE   MOSUNNY   49  25  39 S16       29.99F
COMANCHE       CLEAR     43  27  54 S12       30.03F WCI  37
$$

CENTRAL AND SOUTH CENTRAL TEXAS

CITY           SKY/WX    TMP DP  RH WIND       PRES   REMARKS
AUSTIN/BERGSTM CLEAR     35  33  92 CALM      30.11F
WACO           CLEAR     48  33  56 S15       30.11S
HILLSBORO      MOSUNNY   45  31  58 SE9       30.10S WCI  40
TEMPLE         CLEAR     37  28  70 SE7         N/A  WCI  32
KILLEEN-GRAY   CLEAR     41  30  65 S6        30.08F WCI  37
FORT HOOD      NOT AVBL
GEORGETOWN     CLEAR     36  30  80 CALM      30.11S
LAGO VISTA     FAIR      45  31  56 SE6       30.08F
SAN MARCOS     CLEAR     36  28  75 W3        30.13S
NEW BRAUNFELS  CLEAR     38  31  76 CALM      30.09F
RANDOLPH AFB   CLEAR     40  29  63 CALM      30.09F
SAN ANTONIO    CLEAR     45  31  58 E3        30.08F
STINSON        CLEAR     43  34  70 CALM      30.07F
PLEASANTON     NOT AVBL
LA GRANGE      CLEAR     41  36  81 CALM      30.11S
GIDDINGS       SUNNY     37  35  91 CALM      30.15F
$$

EAST TEXAS

CITY           SKY/WX    TMP DP  RH WIND       PRES   REMARKS
PARIS          CLEAR     43  30  61 S10       30.12S WCI  37
CLARKSVILLE    SUNNY     41  34  75 CALM      30.13F
TYLER          CLEAR     39  32  76 SE7       30.14S WCI  34
LONGVIEW       CLEAR     42  34  73 SE7       30.17R WCI  38
PALESTINE      SUNNY     45  31  59 SE6       30.17S
NACOGDOCHES    CLEAR     39  34  81 SE7       30.18R WCI  34
$$

TEXAS HILL COUNTRY AND EDWARDS PLATEAU

CITY           SKY/WX    TMP DP  RH WIND       PRES   REMARKS
LLANO          SUNNY     41  28  60 S6        30.10F WCI  37
HORSESHOE BAY  FAIR      44  28  53 S7        30.07F
KERRVILLE      CLEAR     41  29  61 SE8       30.06F WCI  36
FREDERICKSBRG  CLEAR     44  27  52 SE7       30.05F WCI  40
ROCKSPRINGS    SUNNY     46  19  34 SE16G23   30.04S WCI  40
HONDO          CLEAR     45  32  60 SE6       30.10F
UVALDE         SUNNY     43  32  64 SE5       30.08S
DEL RIO        CLEAR     48  19  31 SE6       30.05R
$$

SOUTHEAST TEXAS

CITY           SKY/WX    TMP DP  RH WIND       PRES   REMARKS
COLLEGE STN    CLEAR     42  34  73 SE7       30.13F WCI  38
CALDWELL       SUNNY     37  36  93 CALM      30.16S
CROCKETT       SUNNY     45  36  70 E5        30.19S
BRENHAM        CLEAR     39  35  87 NE3       30.14F
HUNTSVILLE     CLEAR     48  31  51 S6        30.15S
CONROE         CLEAR     34  34 100 CALM      30.16S
HOUSTON BUSH   CLEAR     41  35  79 E5        30.15F WCI  38
HOUSTON HOBBY  CLEAR     48  36  63 E5        30.14F
PERLAND        CLEAR     42  37  82 CALM      30.16F
WHARTON        SUNNY     37  37  98 CALM      30.14F
$$

THE UPPER TEXAS COAST

CITY           SKY/WX    TMP DP  RH WIND       PRES   REMARKS
ORANGE         SUNNY     38  38  97 CALM      30.21R
PORT ARTHUR    CLEAR     44  37  76 E6        30.18S
GALVESTON      CLEAR     56  40  55 E9        30.15F
ANGLETON       CLEAR     39  38  96 NE5       30.14F WCI  36
BAY CITY       SUNNY     40  38  92 CALM      30.13F
$$

TEXAS COASTAL BEND, RIO GRANDE PLAINS DEEP SOUTH TEXAS

CITY           SKY/WX    TMP DP  RH WIND       PRES   REMARKS
VICTORIA       CLEAR     41  36  82 E5        30.13F WCI  38
BEEVILLE       FAIR      42  32  69 CALM      30.11S
ROCKPORT       FAIR      57  44  62 SE7       30.11F
PORT ARANSAS   MOSUNNY   59  45  59 SE8       30.11F
PORT LAVACA    SUNNY     44  37  77 CALM      30.12F
CORPUS CHRISTI CLEAR     45  37  73 SE7       30.11F
KINGSVILLE NAS CLEAR     42  38  85 CALM      30.10F
COTULLA        CLEAR     43  32  65 SE6       30.08F WCI  39
LAREDO         CLEAR     49  34  56 SE9       30.10F
BROWNSVILLE    CLEAR     49  45  86 E3        30.10F
PORT ISABEL    CLEAR     56  48  74 SE6       30.09F
HEBBRONVILLE   SUNNY     42  34  74 S7        30.09F WCI  37
MCALLEN        CLEAR     46  38  73 E6        30.09F
WESLACO        CLEAR     45  39  81 CALM      30.10F
FALFURRIAS     SUNNY     43  37  80 CALM      30.11S
EDINBURG       SUNNY     46  38  74 CALM      30.10F
$$



USA.gov is the U.S. government's official web portal to all federal, state and local government web resources and services.